CW1390 Weather Reports


time (UTC)temp
F
wind
direction
speed
knots
gust
knots
rain 1hr
in
rain 24hr
in
rain mn
in
humidity
%
barometer
mb
20260504194536 71 26 2.6 10.4 0.00 0.00 0.00 40 1010.3
20260504194048 71 216 4.3 10.4 0.00 0.00 0.00 39 1010.4
20260504193559 71 135 1.7 9.6 0.00 0.00 0.00 41 1010.4
20260504193512 71 248 1.7 9.6 0.00 0.00 0.00 41 1010.4
20260504193016 71 199 4.3 9.6 0.00 0.00 0.00 40 1010.4
20260504192529 71 126 3.5 10.4 0.00 0.00 0.00 39 1010.4
20260504192041 71 226 2.6 9.6 0.00 0.00 0.00 40 1010.4
20260504191554 71 174 1.7 11.3 0.00 0.00 0.00 41 1010.4
20260504191056 70 256 2.6 11.3 0.00 0.00 0.00 40 1010.5
20260504190502 70 218 2.6 12.2 0.00 0.00 0.00 40 1010.5
20260504190002 70 147 3.5 8.7 0.00 0.00 0.00 40 1010.5
20260504185509 70 168 1.7 12.2 0.00 0.00 0.00 41 1010.6
20260504185012 70 207 4.3 10.4 0.00 0.00 0.00 39 1010.7
20260504184520 70 156 2.6 13.0 0.00 0.00 0.00 41 1010.6
20260504184022 69 155 1.7 11.3 0.00 0.00 0.00 41 1010.7
20260504183530 70 195 2.6 12.2 0.00 0.00 0.00 40 1010.8
20260504183038 69 220 2.6 12.2 0.00 0.00 0.00 41 1010.9
20260504182549 69 183 3.5 11.3 0.00 0.00 0.00 40 1011.0
20260504182057 68 203 3.5 12.2 0.00 0.00 0.00 41 1011.1
20260504181512 68 182 3.5 12.2 0.00 0.00 0.00 39 1011.0
20260504181020 68 152 3.5 13.0 0.00 0.00 0.00 39 1011.1
20260504180533 68 214 6.1 13.0 0.00 0.00 0.00 38 1011.2
20260504180038 68 213 3.5 11.3 0.00 0.00 0.00 40 1011.2
20260504175552 67 212 3.5 11.3 0.00 0.00 0.00 39 1011.3
20260504175058 67 295 6.1 11.3 0.00 0.00 0.00 39 1011.3
20260504174510 66 306 5.2 14.8 0.00 0.00 0.00 40 1011.4
20260504174016 65 216 5.2 14.8 0.00 0.00 0.00 40 1011.4
20260504173528 65 203 5.2 14.8 0.00 0.00 0.00 41 1011.5
20260504173028 65 223 4.3 11.3 0.00 0.00 0.00 41 1011.5
20260504172534 65 224 5.2 16.5 0.00 0.00 0.00 41 1011.5
20260504172034 65 233 6.1 16.5 0.00 0.00 0.00 40 1011.6
20260504171540 64 224 5.2 13.9 0.00 0.00 0.00 41 1011.5
20260504171042 64 196 5.2 17.4 0.00 0.00 0.00 41 1011.7
20260504170546 64 237 5.2 17.4 0.00 0.00 0.00 41 1011.5
20260504151014 61 340 8.7 16.5 0.00 0.00 0.00 44 1012.9
20260504150508 60 340 7.8 18.2 0.00 0.00 0.00 44 1013.0
20260504141047 58 340 5.2 11.3 0.00 0.00 0.00 50 1013.4
20260504140549 57 340 5.2 12.2 0.00 0.00 0.00 51 1013.4
20260504130511 55 340 2.6 12.2 0.00 0.00 0.00 55 1013.6
20260504110549 48 252 1.7 5.2 0.00 0.00 0.00 58 1013.8
20260504100522 45 239 0.9 2.6 0.00 0.00 0.00 62 1013.4
20260504081534 43 223 0.0 2.6 0.00 0.00 0.00 64 1012.7
20260504081039 43 223 0.9 2.6 0.00 0.00 0.00 64 1012.8
20260504080539 43 221 0.0 0.0 0.00 0.00 0.00 64 1012.7
20260504050555 43 247 0.0 0.0 0.00 0.00 0.00 62 1012.3
20260504050508 43 247 0.0 0.0 0.00 0.00 0.00 61 1012.3
20260504050009 43 247 0.0 1.7 0.00 0.00 0.00 61 1012.4
20260504045520 43 247 0.9 1.7 0.00 0.00 0.00 60 1012.4
20260504045021 44 247 0.0 0.0 0.00 0.00 0.00 59 1012.4
20260504044532 44 247 0.0 0.0 0.00 0.00 0.00 59 1012.4
20260504044032 44 247 0.0 0.0 0.00 0.00 0.00 60 1012.3
20260504043540 44 247 0.0 0.0 0.00 0.00 0.00 60 1012.4
20260504043040 45 247 0.0 0.0 0.00 0.00 0.00 59 1012.5
20260504042554 45 247 0.0 1.7 0.00 0.00 0.00 59 1012.4
20260504042058 45 247 0.0 1.7 0.00 0.00 0.00 58 1012.5
20260504041514 46 248 0.0 1.7 0.00 0.00 0.00 56 1012.5
20260504041018 46 248 0.0 0.0 0.00 0.00 0.00 55 1012.3
20260504040532 46 248 0.0 0.0 0.00 0.00 0.00 55 1012.2
20260504040043 46 248 0.0 0.0 0.00 0.00 0.00 56 1012.3
20260504035550 46 248 0.0 2.6 0.00 0.00 0.00 56 1012.3
20260504035010 47 248 0.0 2.6 0.00 0.00 0.00 52 1012.3
20260504034511 47 248 0.0 0.0 0.00 0.00 0.00 51 1012.2
20260504034028 47 340 0.0 0.0 0.00 0.00 0.00 51 1012.2
20260504033530 48 340 0.0 0.0 0.00 0.00 0.00 51 1012.2
20260504033042 48 340 0.0 0.0 0.00 0.00 0.00 50 1012.2
20260504032553 48 249 0.0 0.0 0.00 0.00 0.00 49 1012.2
20260504032003 48 249 0.0 0.0 0.00 0.00 0.00 48 1012.3
20260504031509 48 249 0.0 0.0 0.00 0.00 0.00 47 1012.3
20260504031022 48 249 0.0 0.0 0.00 0.00 0.00 47 1012.1
20260504030526 49 249 0.0 0.0 0.00 0.00 0.00 46 1012.1
20260504030032 49 249 0.0 0.0 0.00 0.00 0.00 45 1012.1
20260504025533 49 249 0.0 0.0 0.00 0.00 0.00 45 1012.1
20260504025040 49 249 0.0 0.0 0.00 0.00 0.00 44 1012.1
20260504024549 49 249 0.0 0.0 0.00 0.00 0.00 45 1012.1
20260504024002 49 249 0.0 0.0 0.00 0.00 0.00 45 1012.2
20260504023510 49 249 0.0 0.0 0.00 0.00 0.00 45 1012.2
20260504023023 49 249 0.0 0.0 0.00 0.00 0.00 45 1012.2
20260504022531 50 249 0.0 0.0 0.00 0.00 0.00 44 1012.2
20260504022043 50 249 0.0 0.0 0.00 0.00 0.00 44 1012.2
20260504021553 50 249 0.0 0.9 0.00 0.00 0.00 43 1012.2
20260504021058 50 249 0.0 1.7 0.00 0.00 0.00 44 1012.2
20260504020558 50 249 0.0 1.7 0.00 0.00 0.00 43 1012.2
20260504020006 50 249 0.0 1.7 0.00 0.00 0.00 43 1012.1
20260504015505 50 249 0.0 1.7 0.00 0.00 0.00 43 1012.1
20260504015016 51 249 0.0 1.7 0.00 0.00 0.00 42 1012.1
20260504014510 51 249 0.0 0.9 0.00 0.00 0.00 42 1012.0
20260504014021 51 249 0.0 0.0 0.00 0.00 0.00 41 1011.9
20260504013524 51 249 0.0 0.0 0.00 0.00 0.00 40 1011.9
20260504013041 52 249 0.0 0.0 0.00 0.00 0.00 40 1011.7
20260504012546 52 249 0.0 0.0 0.00 0.00 0.00 39 1011.7
20260504012100 52 249 0.0 0.9 0.00 0.00 0.00 38 1011.7
20260504012003 52 249 0.0 0.9 0.00 0.00 0.00 38 1011.6
20260504011520 52 249 0.0 0.9 0.00 0.00 0.00 38 1011.7
20260504011023 52 249 0.0 0.9 0.00 0.00 0.00 38 1011.6
20260504010541 52 249 0.0 0.9 0.00 0.00 0.00 38 1011.5
20260504010104 53 249 0.0 0.0 0.00 0.00 0.00 37 1011.4
20260504005505 53 249 0.0 0.0 0.00 0.00 0.00 37 1011.2
20260504005014 53 249 0.0 0.9 0.00 0.00 0.00 37 1011.1
20260504004524 53 249 0.0 0.9 0.00 0.00 0.00 37 1011.1
20260504004029 53 249 0.0 2.6 0.00 0.00 0.00 36 1011.0
20260504003544 53 249 0.0 2.6 0.00 0.00 0.00 35 1011.0
20260504003048 53 257 0.0 1.7 0.00 0.00 0.00 36 1011.0
20260504002555 53 257 0.0 2.6 0.00 0.00 0.00 35 1010.9
20260504002055 54 257 0.0 2.6 0.00 0.00 0.00 35 1010.9
20260504001603 54 264 0.0 1.7 0.00 0.00 0.00 34 1010.8
20260504001502 54 264 0.0 1.7 0.00 0.00 0.00 34 1010.9
20260504001012 54 261 0.0 1.7 0.00 0.00 0.00 33 1010.7
20260504000525 54 261 0.0 1.7 0.00 0.00 0.00 33 1010.6
20260504000042 55 261 0.0 2.6 0.00 0.00 0.00 33 1010.6
20260503235549 55 259 0.9 4.3 0.00 0.00 0.00 33 1010.5
20260503235056 55 259 0.9 4.3 0.00 0.00 0.00 32 1010.4
20260503234512 55 340 0.0 2.6 0.00 0.00 0.00 32 1010.4
20260503234020 56 286 0.0 2.6 0.00 0.00 0.00 32 1010.4
20260503233531 56 284 0.0 2.6 0.00 0.00 0.00 32 1010.3
20260503233048 56 280 0.9 5.2 0.00 0.00 0.00 31 1010.2
20260503232553 56 340 1.7 7.8 0.00 0.00 0.00 30 1010.2
20260503232002 56 245 2.6 9.6 0.00 0.00 0.00 30 1010.1
20260503231508 57 304 2.6 8.7 0.00 0.00 0.00 30 1010.1
20260503231008 57 298 1.7 7.0 0.00 0.00 0.00 30 1010.2
20260503230516 57 293 1.7 7.0 0.00 0.00 0.00 30 1010.2
20260503230014 58 276 0.9 7.8 0.00 0.00 0.00 30 1010.1
20260503225520 58 291 3.5 7.8 0.00 0.00 0.00 29 1010.1
20260503225020 58 281 2.6 7.8 0.00 0.00 0.00 30 1010.1
20260503224536 58 284 2.6 7.8 0.00 0.00 0.00 30 1010.1
20260503224036 58 279 1.7 8.7 0.00 0.00 0.00 31 1010.1
20260503223548 58 268 2.6 10.4 0.00 0.00 0.00 31 1010.0
20260503223056 58 292 4.3 10.4 0.00 0.00 0.00 31 1010.1
20260503223006 58 293 4.3 10.4 0.00 0.00 0.00 31 1010.0
20260503222509 58 289 4.3 10.4 0.00 0.00 0.00 30 1009.9
20260503222021 58 290 2.6 7.8 0.00 0.00 0.00 32 1009.9
20260503221521 57 318 2.6 10.4 0.00 0.00 0.00 33 1009.8
20260503221041 57 311 4.3 10.4 0.00 0.00 0.00 32 1010.0
20260503220546 57 297 4.3 9.6 0.00 0.00 0.00 32 1009.8
20260503220106 57 357 2.6 9.6 0.00 0.00 0.00 32 1009.9
20260503215507 57 297 1.7 7.8 0.00 0.00 0.00 31 1009.9
20260503215019 57 318 3.5 11.3 0.00 0.00 0.00 32 1009.9
20260503214532 57 345 6.1 16.5 0.00 0.00 0.00 31 1009.8
20260503214039 57 303 7.8 16.5 0.00 0.00 0.00 31 1009.9
20260503213550 57 295 6.1 11.3 0.00 0.00 0.00 32 1009.8
20260503213001 57 340 6.1 14.8 0.00 0.00 0.00 32 1009.8
20260503212512 57 349 4.3 13.9 0.00 0.00 0.00 32 1009.8
20260503212024 57 335 5.2 18.2 0.00 0.00 0.00 32 1009.8
20260503211530 57 330 4.3 18.2 0.00 0.00 0.00 33 1009.8
20260503211035 56 307 7.0 15.6 0.00 0.00 0.00 31 1009.9
20260503210535 56 293 7.0 14.8 0.00 0.00 0.00 33 1009.8
20260503210055 56 316 5.2 17.4 0.00 0.00 0.00 33 1009.9
20260503205601 56 293 7.0 17.4 0.00 0.00 0.00 32 1009.8
20260503205012 56 288 7.0 20.9 0.00 0.00 0.00 33 1009.7
20260503204518 56 310 11.3 20.9 0.00 0.00 0.00 32 1009.7
20260503204031 56 335 5.2 15.6 0.00 0.00 0.00 34 1009.7
20260503203541 56 276 6.1 13.9 0.00 0.00 0.00 33 1009.7
20260503203100 56 302 4.3 10.4 0.00 0.00 0.00 33 1009.8
20260503202503 55 340 3.5 16.5 0.00 0.00 0.00 34 1009.7
20260503202016 55 335 5.2 13.0 0.00 0.00 0.00 35 1009.8
20260503201533 55 320 4.3 13.9 0.00 0.00 0.00 34 1009.8
20260503201039 54 301 7.0 17.4 0.00 0.00 0.00 34 1009.8
20260503200545 54 284 7.0 17.4 0.00 0.00 0.00 34 1009.8
20260503200052 55 340 7.8 16.5 0.00 0.00 0.00 34 1009.9
20260503195552 54 300 7.0 15.6 0.00 0.00 0.00 35 1009.9
20260503195057 55 311 7.0 20.9 0.00 0.00 0.00 35 1009.8